International Skating Union - Official Site

ISU World Cup Heerenveen
December 12-14, 2014

Draw | Lap Times | Index | World Cup

Referee: Dan  IMMERFALL  (USA)
Starter: Ole Herman  SÖRLI  (NOR)
StartTime: EndTime: Air Temp: Ice Temp: Humidity:
11:19 12:30 11℃ -7.3℃ 38%
Result 5000m Men Division B
Rankings as of Dec 13 2014 5:05PM
Rank: No.: Name: Nation: Time: Behind: Points:
1 132 Nils  van der Poel SWE SWE 6:23.40200m - 19.17 - (19.1)
600m - 49.40 - (30.2)
1000m - 1:20.27 - (30.8)
1400m - 1:51.26 - (30.9)
1800m - 2:21.87 - (30.6)
2200m - 2:52.39 - (30.5)
2600m - 3:22.91 - (30.5)
3000m - 3:53.31 - (30.4)
3400m - 4:23.68 - (30.3)
3800m - 4:53.86 - (30.1)
4200m - 5:23.76 - (29.9)
4600m - 5:53.80 - (30.0)
5000m - 6:23.40 - (29.6)
32
2 96 Håvard  Bøkko NOR NOR 6:26.86200m - 18.82 - (18.8)
600m - 48.55 - (29.7)
1000m - 1:18.73 - (30.1)
1400m - 1:49.21 - (30.4)
1800m - 2:19.85 - (30.6)
2200m - 2:50.25 - (30.4)
2600m - 3:20.75 - (30.5)
3000m - 3:51.54 - (30.7)
3400m - 4:22.27 - (30.7)
3800m - 4:53.18 - (30.9)
4200m - 5:24.38 - (31.2)
4600m - 5:55.65 - (31.2)
5000m - 6:26.86 - (31.2)
3.46 27
3 9 Ted-Jan  Bloemen CAN CAN 6:27.31200m - 19.26 - (19.2)
600m - 48.62 - (29.3)
1000m - 1:18.47 - (29.8)
1400m - 1:48.68 - (30.2)
1800m - 2:18.98 - (30.3)
2200m - 2:49.30 - (30.3)
2600m - 3:19.73 - (30.4)
3000m - 3:50.43 - (30.7)
3400m - 4:21.31 - (30.8)
3800m - 4:52.51 - (31.2)
4200m - 5:23.87 - (31.3)
4600m - 5:55.35 - (31.4)
5000m - 6:27.31 - (31.9)
3.91 23
4 125 Danil  Sinitsyn RUS RUS 6:29.45200m - 19.58 - (19.5)
600m - 48.80 - (29.2)
1000m - 1:18.72 - (29.9)
1400m - 1:48.82 - (30.1)
1800m - 2:18.92 - (30.1)
2200m - 2:49.07 - (30.1)
2600m - 3:19.34 - (30.2)
3000m - 3:49.90 - (30.5)
3400m - 4:20.69 - (30.7)
3800m - 4:52.27 - (31.5)
4200m - 5:24.33 - (32.0)
4600m - 5:56.87 - (32.5)
5000m - 6:29.45 - (32.5)
6.05 19
5 62 Shane  Williamson JPN JPN 6:29.86200m - 18.44 - (18.4)
600m - 47.50 - (29.0)
1000m - 1:17.18 - (29.6)
1400m - 1:47.30 - (30.1)
1800m - 2:17.57 - (30.2)
2200m - 2:48.17 - (30.6)
2600m - 3:19.00 - (30.8)
3000m - 3:50.11 - (31.1)
3400m - 4:21.38 - (31.2)
3800m - 4:52.92 - (31.5)
4200m - 5:24.87 - (31.9)
4600m - 5:57.11 - (32.2)
5000m - 6:29.86 - (32.7)
6.46 15
6 28 Viktor-Hald  Thorup DEN DEN 6:31.43200m - 20.43 - (20.4)
600m - 51.02 - (30.5)
1000m - 1:21.22 - (30.2)
1400m - 1:51.53 - (30.3)
1800m - 2:21.83 - (30.3)
2200m - 2:52.22 - (30.3)
2600m - 3:22.79 - (30.5)
3000m - 3:53.39 - (30.6)
3400m - 4:24.28 - (30.8)
3800m - 4:55.57 - (31.2)
4200m - 5:27.31 - (31.7)
4600m - 5:59.41 - (32.1)
5000m - 6:31.43 - (32.0)
8.03 11
7 117 Sergey  Gryaztsov RUS RUS 6:32.14200m - 19.37 - (19.3)
600m - 49.70 - (30.3)
1000m - 1:20.51 - (30.8)
1400m - 1:51.33 - (30.8)
1800m - 2:22.18 - (30.8)
2200m - 2:53.01 - (30.8)
2600m - 3:23.85 - (30.8)
3000m - 3:54.73 - (30.8)
3400m - 4:25.83 - (31.1)
3800m - 4:56.91 - (31.0)
4200m - 5:28.31 - (31.4)
4600m - 5:59.98 - (31.6)
5000m - 6:32.14 - (32.1)
8.74 9
8 100 Ole  Bjørnsmoen Næss NOR NOR 6:32.42200m - 19.53 - (19.5)
600m - 49.67 - (30.1)
1000m - 1:20.12 - (30.4)
1400m - 1:50.91 - (30.7)
1800m - 2:21.83 - (30.9)
2200m - 2:52.69 - (30.8)
2600m - 3:23.52 - (30.8)
3000m - 3:54.48 - (30.9)
3400m - 4:25.70 - (31.2)
3800m - 4:57.18 - (31.4)
4200m - 5:28.73 - (31.5)
4600m - 6:00.52 - (31.7)
5000m - 6:32.42 - (31.9)
9.02 7
9 42 Marco  Weber GER GER 6:32.52200m - 19.45 - (19.4)
600m - 49.72 - (30.2)
1000m - 1:20.47 - (30.7)
1400m - 1:51.25 - (30.7)
1800m - 2:21.82 - (30.5)
2200m - 2:52.67 - (30.8)
2600m - 3:23.64 - (30.9)
3000m - 3:54.80 - (31.1)
3400m - 4:26.05 - (31.2)
3800m - 4:57.71 - (31.6)
4200m - 5:29.36 - (31.6)
4600m - 6:01.14 - (31.7)
5000m - 6:32.52 - (31.3)
9.12 6
10 105 Peter  Michael NZL NZL 6:34.43200m - 19.35 - (19.3)
600m - 48.77 - (29.4)
1000m - 1:19.57 - (30.8)
1400m - 1:50.41 - (30.8)
1800m - 2:20.70 - (30.2)
2200m - 2:51.64 - (30.9)
2600m - 3:22.47 - (30.8)
3000m - 3:53.62 - (31.1)
3400m - 4:25.25 - (31.6)
3800m - 4:57.47 - (32.2)
4200m - 5:29.46 - (31.9)
4600m - 6:01.74 - (32.2)
5000m - 6:34.43 - (32.7)
11.03 5
11 7 Vitaly  Mikhailov BLR BLR 6:35.81200m - 19.46 - (19.4)
600m - 49.65 - (30.1)
1000m - 1:20.25 - (30.6)
1400m - 1:50.88 - (30.6)
1800m - 2:21.54 - (30.6)
2200m - 2:52.34 - (30.8)
2600m - 3:23.21 - (30.8)
3000m - 3:54.55 - (31.3)
3400m - 4:25.98 - (31.4)
3800m - 4:57.65 - (31.6)
4200m - 5:29.99 - (32.3)
4600m - 6:02.92 - (32.9)
5000m - 6:35.81 - (32.8)
12.41 4
12 71 Cheol-Min  Kim KOR KOR 6:36.40200m - 19.52 - (19.5)
600m - 49.51 - (29.9)
1000m - 1:19.86 - (30.3)
1400m - 1:50.63 - (30.7)
1800m - 2:21.62 - (30.9)
2200m - 2:52.97 - (31.3)
2600m - 3:24.74 - (31.7)
3000m - 3:56.61 - (31.8)
3400m - 4:28.60 - (31.9)
3800m - 5:00.64 - (32.0)
4200m - 5:32.68 - (32.0)
4600m - 6:04.50 - (31.8)
5000m - 6:36.40 - (31.9)
13.00 3
13 64 Dmitry  Babenko KAZ KAZ 6:37.00200m - 20.18 - (20.1)
600m - 51.86 - (31.6)
1000m - 1:23.80 - (31.9)
1400m - 1:55.42 - (31.6)
1800m - 2:26.82 - (31.4)
2200m - 2:58.25 - (31.4)
2600m - 3:29.58 - (31.3)
3000m - 4:00.85 - (31.2)
3400m - 4:32.18 - (31.3)
3800m - 5:03.37 - (31.1)
4200m - 5:34.76 - (31.3)
4600m - 6:06.39 - (31.6)
5000m - 6:37.00 - (30.6)
13.60 2
14 48 Luca  Stefani ITA ITA 6:37.15200m - 19.16 - (19.1)
600m - 49.39 - (30.2)
1000m - 1:19.96 - (30.5)
1400m - 1:50.96 - (31.0)
1800m - 2:22.02 - (31.0)
2200m - 2:53.45 - (31.4)
2600m - 3:24.89 - (31.4)
3000m - 3:56.68 - (31.7)
3400m - 4:28.60 - (31.9)
3800m - 5:00.86 - (32.2)
4200m - 5:32.94 - (32.0)
4600m - 6:05.07 - (32.1)
5000m - 6:37.15 - (32.0)
13.75 1
15 35 Alexej  Baumgärtner GER GER 6:38.87200m - 19.07 - (19.0)
600m - 48.86 - (29.7)
1000m - 1:19.62 - (30.7)
1400m - 1:50.62 - (31.0)
1800m - 2:21.60 - (30.9)
2200m - 2:52.86 - (31.2)
2600m - 3:24.15 - (31.2)
3000m - 3:55.68 - (31.5)
3400m - 4:27.46 - (31.7)
3800m - 4:59.79 - (32.3)
4200m - 5:32.36 - (32.5)
4600m - 6:05.53 - (33.1)
5000m - 6:38.87 - (33.3)
15.47 0
16 97 Fredrik  van der Horst NOR NOR 6:39.26200m - 19.28 - (19.2)
600m - 49.21 - (29.9)
1000m - 1:19.67 - (30.4)
1400m - 1:50.21 - (30.5)
1800m - 2:21.30 - (31.0)
2200m - 2:52.40 - (31.1)
2600m - 3:23.19 - (30.7)
3000m - 3:54.11 - (30.9)
3400m - 4:25.66 - (31.5)
3800m - 4:57.78 - (32.1)
4200m - 5:30.38 - (32.6)
4600m - 6:02.99 - (32.6)
5000m - 6:39.26 - (36.2)
15.86 0
17 57 Masahito  Obayashi JPN JPN 6:39.42200m - 19.08 - (19.0)
600m - 49.92 - (30.8)
1000m - 1:20.89 - (30.9)
1400m - 1:52.29 - (31.4)
1800m - 2:23.98 - (31.6)
2200m - 2:55.49 - (31.5)
2600m - 3:27.38 - (31.8)
3000m - 3:59.25 - (31.8)
3400m - 4:31.08 - (31.8)
3800m - 5:02.98 - (31.9)
4200m - 5:35.56 - (32.5)
4600m - 6:07.67 - (32.1)
5000m - 6:39.42 - (31.7)
16.02 0
18 129 Martin  Hänggi SUI SUI 6:39.96200m - 19.90 - (19.9)
600m - 50.62 - (30.7)
1000m - 1:21.63 - (31.0)
1400m - 1:52.89 - (31.2)
1800m - 2:24.04 - (31.1)
2200m - 2:55.42 - (31.3)
2600m - 3:27.31 - (31.8)
3000m - 3:59.48 - (32.1)
3400m - 4:31.70 - (32.2)
3800m - 5:03.61 - (31.9)
4200m - 5:35.84 - (32.2)
4600m - 6:08.03 - (32.1)
5000m - 6:39.96 - (31.9)
16.56 0
19 75 Byung-Wook  Ko KOR KOR 6:40.13200m - 19.43 - (19.4)
600m - 49.74 - (30.3)
1000m - 1:20.79 - (31.0)
1400m - 1:51.91 - (31.1)
1800m - 2:23.29 - (31.3)
2200m - 2:54.51 - (31.2)
2600m - 3:26.08 - (31.5)
3000m - 3:58.04 - (31.9)
3400m - 4:30.31 - (32.2)
3800m - 5:02.69 - (32.3)
4200m - 5:35.88 - (33.1)
4600m - 6:08.29 - (32.4)
5000m - 6:40.13 - (31.8)
16.73 0
20 23 Rehanbai  Talabuhan CHN CHN 6:44.34200m - 19.77 - (19.7)
600m - 50.08 - (30.3)
1000m - 1:20.82 - (30.7)
1400m - 1:52.11 - (31.2)
1800m - 2:23.34 - (31.2)
2200m - 2:54.63 - (31.2)
2600m - 3:26.00 - (31.3)
3000m - 3:57.55 - (31.5)
3400m - 4:29.50 - (31.9)
3800m - 5:02.02 - (32.5)
4200m - 5:35.28 - (33.2)
4600m - 6:09.79 - (34.5)
5000m - 6:44.34 - (34.5)
20.94 0
21 20 Yiming  Liu CHN CHN 6:44.84200m - 19.59 - (19.5)
600m - 50.26 - (30.6)
1000m - 1:21.45 - (31.1)
1400m - 1:52.66 - (31.2)
1800m - 2:23.74 - (31.0)
2200m - 2:54.80 - (31.0)
2600m - 3:25.59 - (30.7)
3000m - 3:57.01 - (31.4)
3400m - 4:29.25 - (32.2)
3800m - 5:02.35 - (33.1)
4200m - 5:36.21 - (33.8)
4600m - 6:10.43 - (34.2)
5000m - 6:44.84 - (34.4)
21.44 0
22 137 Edwin  Park USA USA 6:46.12200m - 19.68 - (19.6)
600m - 50.54 - (30.8)
1000m - 1:20.80 - (30.2)
1400m - 1:51.09 - (30.2)
1800m - 2:21.56 - (30.4)
2200m - 2:52.50 - (30.9)
2600m - 3:24.12 - (31.6)
3000m - 3:56.67 - (32.5)
3400m - 4:29.86 - (33.1)
3800m - 5:03.82 - (33.9)
4200m - 5:37.67 - (33.8)
4600m - 6:11.83 - (34.1)
5000m - 6:46.12 - (34.2)
22.72 0
23 112 Piotr  Puszkarski POL POL 6:49.42200m - 19.58 - (19.5)
600m - 49.99 - (30.4)
1000m - 1:21.02 - (31.0)
1400m - 1:52.84 - (31.8)
1800m - 2:24.73 - (31.8)
2200m - 2:56.41 - (31.6)
2600m - 3:28.44 - (32.0)
3000m - 4:00.62 - (32.1)
3400m - 4:32.88 - (32.2)
3800m - 5:05.63 - (32.7)
4200m - 5:39.15 - (33.5)
4600m - 6:13.54 - (34.3)
5000m - 6:49.42 - (35.8)
26.02 0
24 104 Reyon  Kay NZL NZL 6:54.33200m - 19.96 - (19.9)
600m - 50.26 - (30.3)
1000m - 1:21.14 - (30.8)
1400m - 1:52.35 - (31.2)
1800m - 2:23.76 - (31.4)
2200m - 2:55.48 - (31.7)
2600m - 3:27.65 - (32.1)
3000m - 4:00.80 - (33.1)
3400m - 4:34.14 - (33.3)
3800m - 5:08.75 - (34.6)
4200m - 5:43.22 - (34.4)
4600m - 6:18.74 - (35.5)
5000m - 6:54.33 - (35.6)
30.93 0
25 68 Artur  Sergiyenko KAZ KAZ 6:58.55200m - 19.56 - (19.5)
600m - 51.47 - (31.9)
1000m - 1:23.84 - (32.3)
1400m - 1:56.45 - (32.6)
1800m - 2:29.04 - (32.5)
2200m - 3:01.70 - (32.6)
2600m - 3:34.41 - (32.7)
3000m - 4:07.65 - (33.2)
3400m - 4:41.17 - (33.5)
3800m - 5:14.77 - (33.6)
4200m - 5:48.16 - (33.3)
4600m - 6:22.88 - (34.7)
5000m - 6:58.55 - (35.6)
35.15 0
26 115 Adrian  Wielgat POL POL DQ200m - 19.51 - (19.5)
600m - 50.12 - (30.6)
1000m - 1:21.43 - (31.3)
1400m - 1:53.00 - (31.5)
1800m - 2:24.64 - (31.6)
2200m - 2:56.33 - (31.6)
2600m - 3:28.00 - (31.6)
3000m - 3:59.77 - (31.7)
3400m - 4:31.57 - (31.8)
3800m - 5:03.56 - (31.9)
4200m - 5:35.63 - (32.0)
4600m - 6:08.45 - (32.8)
5000m - 6:41.70 - (33.2)
0